# Land Stadt Wetter Temperatur Luftdruck Luftfeuchtigkeit Sichtweite Windgeschwindigkeit Windrichtung Ortszeit
1 et Addis Abeba Clear 25 1010 13 10000 18 158 02.08.2018 14:23
2 tr Alanya Clouds 9 1012 63 10000 46 256 02.08.2018 14:22
3 au Alice Springs Clear 22 1009 83 10000 0 0 02.08.2018 14:21
4 ru Amderma Clouds -5 999 91 3036 25 206 02.08.2018 14:23
5 ru Anadyr Mist -6 1004 92 4400 18 100 02.08.2018 14:23
6 ch Andermatt Clouds 1 1025 83 10000 12 325 02.08.2018 14:23
7 ad Andorra la Vella Clear 6 1028 80 10000 13 14 02.08.2018 14:22
8 tr Ankara Clouds 2 1011 76 10000 9 110 02.08.2018 14:23
9 mg Antananarivo Rain 25 1016 61 10000 19 130 02.08.2018 14:21
10 gr Athen Clouds 11 1021 36 10000 19 330 02.08.2018 14:22
11 ck Avarua Rain 27 1012 78 10000 17 20 02.08.2018 14:22
12 iq Bagdad Clear 17 1012 45 10000 15 180 02.08.2018 14:22
13 th Bangkok Clouds 27 1010 57 10000 10 183 02.08.2018 14:21
14 es Barcelona Clear 14 1026 52 10000 13 240 02.08.2018 14:22
15 de Berlin Clouds 6 998 82 10000 32 270 02.08.2018 14:21
16 ch Bern Clouds 6 1027 60 10000 23 270 02.08.2018 14:23
17 fr Bordeaux Clouds 11 1033 76 10000 4 0 02.08.2018 14:21
18 de Braunschweig Rain 6 1009 71 10000 32 360 02.08.2018 14:21
19 de Bremen Clouds 5 1010 90 10000 32 280 02.08.2018 14:22
20 ar Buenos Aires Clouds 25 1015 74 10000 19 100 02.08.2018 14:22
21 ma Casablanca Clouds 17 1025 59 10000 11 340 02.08.2018 14:23
22 us Chicago Clear -13 1027 68 10000 10 251 02.08.2018 14:23
23 pe Cusco Clouds 10 1031 82 10000 0 0 02.08.2018 14:23
24 au Darwin Clouds 29 1006 81 10000 17 300 02.08.2018 14:22
25 us Death Valley Clouds 9 1024 27 10000 8 357 02.08.2018 14:22
26 us Denver Clear -9 1024 61 10000 2 197 02.08.2018 14:21
27 qa Doha Dust 22 1012 68 2500 22 120 02.08.2018 14:23
28 de Dresden Clouds 6 1006 81 10000 24 260 02.08.2018 14:22
29 ae Dubai Clear 29 1014 23 10000 17 180 02.08.2018 14:21
30 ie Dublin Clouds 10 1023 76 10000 35 250 02.08.2018 14:21
31 de Emden Clouds 6 1010 90 10000 45 286 02.08.2018 14:21
32 ar Esquel Clouds 14 1017 35 10000 8 250 02.08.2018 14:22
33 us Fairbanks Snow -12 1011 84 8047 6 50 02.08.2018 14:23
34 de Flensburg Clouds 6 1003 81 10000 36 280 02.08.2018 14:21
35 de Frankfurt Clouds 8 1020 69 10000 37 240 02.08.2018 14:22
36 de Freiburg Clouds 6 1025 79 10000 16 202 02.08.2018 14:22
37 gb Glasgow Clouds 8 1016 75 10000 15 270 02.08.2018 14:21
38 de Hamburg Rain 4 1006 91 10000 33 270 02.08.2018 14:21
39 no Hammerfest Snow -2 996 80 10000 15 30 02.08.2018 14:22
40 de Hannover Rain 6 1009 87 10000 41 250 02.08.2018 14:21
41 vn Hanoi Clear 21 1014 83 10000 12 145 02.08.2018 14:21
42 de Helgoland Rain 6 1007 80 10000 50 291 02.08.2018 14:22
43 fi Helsinki Clouds 1 994 83 10000 7 100 02.08.2018 14:21
44 de Hiddensee Clouds 7 1002 76 10000 45 271 02.08.2018 14:21
45 sb Honiara Clouds 26 1007 88 10000 0 71 02.08.2018 14:22
46 us Honolulu Clear 21 1013 91 10000 3 264 02.08.2018 14:22
47 at Innsbruck Clouds 6 1018 62 10000 10 288 02.08.2018 14:23
48 tr Istanbul Clouds 7 1017 53 10000 19 270 02.08.2018 14:23
49 in Jagatsukh Clouds 3 1027 62 10000 17 24 02.08.2018 14:22
50 id Jakarta Rain 28 1008 76 10000 7 295 02.08.2018 14:22
51 ru Jakutsk Snow -38 1016 67 5000 7 10 02.08.2018 14:22
52 af Kabul Clouds -2 1028 83 10000 5 202 02.08.2018 14:21
53 eg Kairo Sand 17 1014 42 2000 39 260 02.08.2018 14:22
54 za Kapstadt Clear 26 1015 49 10000 22 170 02.08.2018 14:22
55 de Kassel Rain 7 1013 65 10000 39 250 02.08.2018 14:21
56 ua Kiew Rain 1 1004 89 1070 2 153 02.08.2018 14:21
57 cd Kisangani Rain 25 1007 71 10000 9 201 02.08.2018 14:23
58 de Köln Clouds 8 1023 70 10000 37 270 02.08.2018 14:21
59 bo La Paz Clouds 7 1038 93 8000 4 0 02.08.2018 14:22
60 es Las Palmas de Gran Canaria Clear 20 1021 61 10000 19 1 02.08.2018 14:21
61 us Las Vegas Clear 0 1024 47 10000 11 160 02.08.2018 14:21
62 cn Lhasa Clear 0 1015 15 10000 12 340 02.08.2018 14:22
63 pt Lissabon Clear 13 1022 63 10000 14 270 02.08.2018 14:22
64 gb London Clouds 10 1023 67 10000 35 260 02.08.2018 14:22
65 us Los Angeles Clear 9 1023 45 10000 9 90 02.08.2018 14:22
66 es Madrid Clear 11 1026 48 10000 9 70 02.08.2018 14:23
67 de Magdeburg Clouds 6 1011 78 10000 38 270 02.08.2018 14:22
68 it Mailand Clear 14 1019 55 10000 19 270 02.08.2018 14:21
69 mv Male Clouds 28 1008 78 9000 20 330 02.08.2018 14:23
70 br Manaus Clouds 26 1013 83 10000 19 90 02.08.2018 14:21
71 gb Manchester Clouds 9 1020 79 10000 33 270 02.08.2018 14:21
72 ph Manila Clouds 27 1011 75 10000 9 110 02.08.2018 14:21
73 ma Marrakesch Clouds 14 1025 41 8000 6 210 02.08.2018 14:23
74 mx Mexiko Stadt Mist 9 1020 82 8047 9 80 02.08.2018 14:21
75 us Miami Clouds 23 1023 89 10000 6 350 02.08.2018 14:23
76 uy Montevideo Clouds 24 1014 72 10000 16 141 02.08.2018 14:22
77 ca Montreal Clear -21 1025 81 10000 4 120 02.08.2018 14:22
78 ru Moskau Clouds 0 1006 97 330 11 162 02.08.2018 14:22
79 in Mumbai Smoke 30 1011 48 2500 9 20 02.08.2018 14:22
80 de München Clouds 4 1023 74 10000 16 262 02.08.2018 14:21
81 jp Nagasaki Clouds 10 1019 66 10000 17 331 02.08.2018 14:21
82 in Nagpur Haze 22 1016 53 3000 0 0 02.08.2018 14:21
83 ke Nairobi Clouds 30 1017 20 10000 20 90 02.08.2018 14:22
84 bs Nassau Clouds 25 1024 78 10000 9 110 02.08.2018 14:22
85 us New York Clouds -3 1026 76 10000 17 10 02.08.2018 14:22
86 fr Nizza Clouds 14 1020 66 10000 15 110 02.08.2018 14:22
87 us Nome Fog -18 1012 100 805 0 0 02.08.2018 14:23
88 de Nürnberg Clouds 5 1019 81 10000 24 260 02.08.2018 14:21
89 gl Nuuk Clouds -12 995 72 10000 6 150 02.08.2018 14:22
90 de Oberstdorf Clouds 4 1022 75 2860 8 153 02.08.2018 14:21
91 no Oslo Clouds -2 995 83 10000 7 10 02.08.2018 14:23
92 it Palermo Clear 14 1024 46 10000 3 312 02.08.2018 14:22
93 es Palma de Mallorca Clouds 14 1028 64 10000 17 240 02.08.2018 14:22
94 fr Paris Clouds 10 1028 69 10000 24 270 02.08.2018 14:22
95 cn Peking Clouds -7 1034 18 10000 8 35 02.08.2018 14:23
96 au Perth Clear 24 1012 40 10000 33 110 02.08.2018 14:21
97 pg Port Moresby Clouds 24 1007 100 10000 13 300 02.08.2018 14:21
98 bo Potisi Clouds 6 1043 81 10000 15 60 02.08.2018 14:22
99 is Reykjavik Clouds -2 1006 69 10000 13 70 02.08.2018 14:22
100 sa Riad Clouds 23 1011 38 10000 15 249 02.08.2018 14:21
101 br Rio de Janeiro Clear 28 1012 75 10000 11 140 02.08.2018 14:22
102 it Rom Clouds 13 1023 63 10000 9 310 02.08.2018 14:23
103 fi Rovaniemi Snow -7 989 93 4200 9 290 02.08.2018 14:21
104 ec San Cristobal Rain 25 1012 79 10000 6 159 02.08.2018 14:22
105 cl Santiago Clear 21 1018 47 10000 0 0 02.08.2018 14:23
106 do Santo Domingo Clouds 23 1020 90 10000 15 360 02.08.2018 14:21
107 kr Seoul Clear -3 1026 57 10000 13 310 02.08.2018 14:21
108 es Sevilla Clear 15 1026 42 10000 7 70 02.08.2018 14:22
109 cn Shanghai Clouds 6 1021 61 10000 29 20 02.08.2018 14:21
110 bg Sofia Clouds 6 1019 50 10000 28 280 02.08.2018 14:21
111 se Stockholm Snow -1 992 92 5000 7 20 02.08.2018 14:23
112 de Stuttgart Clouds 6 1022 75 10000 19 230 02.08.2018 14:22
113 ru Surgut Clouds -8 1020 85 10000 11 210 02.08.2018 14:23
114 fj Suva Clouds 25 1005 94 10000 4 0 02.08.2018 14:21
115 au Sydney Clouds 22 1001 80 10000 9 110 02.08.2018 14:22
116 es Tarifa Clear 14 1026 61 10000 22 82 02.08.2018 14:21
117 jp Tokio Clear 8 1007 47 10000 28 250 02.08.2018 14:22
118 de Torfhaus Snow 1 1013 86 6996 28 259 02.08.2018 14:22
119 de Trier Clouds 8 1024 83 10000 22 261 02.08.2018 14:21
120 us Tucson Clear 4 1017 88 10000 6 180 02.08.2018 14:21
121 mn Ulaanbaatar Clear -26 1024 76 10000 4 0 02.08.2018 14:23
122 mn Uliastai Clouds -18 1039 71 10000 10 78 02.08.2018 14:23
123 ar Ushuaia Rain 11 1003 76 10000 15 230 02.08.2018 14:22
124 mx Veracruz Mist 22 1018 100 6437 6 310 02.08.2018 14:21
125 bg Warna Clouds 8 1014 74 10000 32 270 02.08.2018 14:21
126 nz Wellington Rain 19 1011 89 10000 32 10 02.08.2018 14:23
127 ru Werchojansk Clouds -31 1011 100 5475 5 85 02.08.2018 14:22
128 at Wien Clouds 6 1016 75 10000 43 281 02.08.2018 14:22